Location: Newark
(46.1500°N, 9.2833°E)
Time: 06:23:34
(UTC+00:00)

OTV 5 (USA 277) - Pass Details

Date: 16 October 2019
Orbit: 310 x 324 km, 54.5° (Epoch: 17 October)

Event Time Altitude Azimuth Distance (km) Brightness Sun altitude
Exits shadow 04:07:15 21° 347° (NNW) 807 ? -16.9°
Maximum altitude 04:08:12 25° 21° (NNE) 696 ? -16.7°
Drops below altitude 10° 04:10:34 10° 81° (E) 1,237 ? -16.3°
Sets 04:12:43 0° 95° (E) 2,065 ? -16.0°
